Regional Weather Roundup
Issued by NWS

Home | Current Version | Previous Version | Graphics & Text | Print | Product List | Glossary On
Versions: 1 2 3 4 5 6 7 8 9 10 11 12 13 14 15 16 17 18 19 20 21 22 23 24 25 26 27 28 29 30 31 32 33 34 35 36 37 38 39 40 41 42 43 44 45 46 47 48 49 50
000
ASUS43 KBIS 270220
RWRND

NORTH DAKOTA REGIONAL WEATHER ROUNDUP
NATIONAL WEATHER SERVICE BISMARCK ND
900 PM CDT THU MAR 26 2015

NOTE: "FAIR" INDICATES FEW OR NO CLOUDS BELOW 12,000 FEET WITH NO
SIGNIFICANT WEATHER AND/OR OBSTRUCTIONS TO VISIBILITY.


NDZ001>003-009>011-017-270300-
NORTHWEST NORTH DAKOTA

CITY           SKY/WX    TMP DP  RH WIND       PRES   REMARKS
WILLISTON      CLOUDY    39  26  59 SE12      30.14F
MINOT          PTCLDY    30  21  69 E6        30.21F
MINOT AFB      PTCLDY    30  26  86 E7        30.21S
$$

NDZ018>021-031>035-040>046-270300-
SOUTHWEST NORTH DAKOTA

CITY           SKY/WX    TMP DP  RH WIND       PRES   REMARKS
BISMARCK       MOCLDY    29  19  66 E8        30.24R
DICKINSON      CLOUDY    33  27  78 SE8       30.15S
GARRISON         N/A     32  20  61 CALM      30.21S
HETTINGER ARPT CLOUDY    33  27  78 SE7       30.19R
$$

NDZ004>008-012>016-024-026-027-054-270300-
NORTHEAST NORTH DAKOTA

CITY           SKY/WX    TMP DP  RH WIND       PRES   REMARKS
GRAND FORKS    FAIR      22  15  75 N7        30.31R WCI  13
DEVILS LAKE    CLEAR     25  18  74 SE6       30.27S WCI  18
$$

NDZ022-023-025-028>030-036>039-047>053-270300-
SOUTHEAST NORTH DAKOTA

CITY           SKY/WX    TMP DP  RH WIND       PRES   REMARKS
FARGO          CLEAR     25  10  53 N9        30.29R WCI  15
JAMESTOWN      CLEAR     23  13  65 NE8       30.27R WCI  14
$$



USA.gov is the U.S. government's official web portal to all federal, state and local government web resources and services.